This demonstration page uses our WeatherBlox Daily Observations layout. Learn more.

Left ArrowRight Arrow

39.92423, -83.80882

Hourly Observations for March 11, 2020

Temp ( °F °C ) Dew Point ( °F °C ) Humidity (%) Winds ( mph kmh ) Pressure ( in mb ) Visibility ( mi km ) Precip ( " mm )
12:41 am 00:41 Cloudy 41 5 39 4 93 93 NE 9 15 30.24 1024 10 16.0934 0 0
12:56 am 00:56 Cloudy 41 5 40 4.4 96 96 E 10 17 30.21 1023 10 16.0934 0 0
1:56 am 01:56 Cloudy 40 4.4 40 4.4 100 100 E 8 13 30.19 1022 10 16.0934 0 0
2:33 am 02:33 Cloudy 39 4 39 4 100 100 S 5 7 30.21 1023 10 16.0934 0 0
2:56 am 02:56 Cloudy 40 4.4 40 4.4 100 100 S 3 6 30.18 1022 10 16.0934 0 0
3:44 am 03:44 Cloudy 41 5 41 5 100 100 S 3 6 30.16 1021 10 16.0934 0 0
3:56 am 03:56 Cloudy 41 5 41 5 100 100 Calm 30.14 1021 10 16.0934 0 0
4:56 am 04:56 Cloudy 41 5 41 5 100 100 Calm 30.12 1020 9 14.48406 0 0
5:26 am 05:26 Cloudy 41 5 41 5 100 100 Calm 30.15 1021 10 16.0934 0 0
5:56 am 05:56 Cloudy 41 5 41 5 100 100 Calm 30.14 1021 7 11.26538 0 0
6:04 am 06:04 Cloudy with Mist and Fog 41 5 41 5 100 100 Calm 30.15 1021 6 9.65604 0 0
6:56 am 06:56 Cloudy with Mist and Fog 40 4.4 40 4.4 100 100 SSE 5 7 30.12 1020 4 6.43736 0.001 0.001
7:11 am 07:11 Cloudy with Mist and Fog 39 4 39 4 100 100 SE 5 7 30.13 1020 4 6.43736 0 0
7:22 am 07:22 Cloudy with Mist and Fog 39 4 39 4 100 100 E 5 7 30.12 1020 4 6.43736 0 0
7:33 am 07:33 Cloudy with Mist and Fog 39 4 39 4 100 100 E 3 6 30.12 1020 4 6.43736 0 0
7:56 am 07:56 Cloudy with Mist and Fog 41 5 41 5 100 100 E 3 6 30.09 1019 3 4.82802 0 0
8:56 am 08:56 Cloudy with Mist and Fog 41 5 41 5 100 100 Calm 30.1 1019 3 4.82802 0 0
9:11 am 09:11 Cloudy with Mist and Fog 41 5 41 5 100 100 Calm 30.12 1020 3 4.82802 0 0
9:56 am 09:56 Cloudy with Light Rain 42 5.6 42 5.6 100 100 Calm 30.11 1020 2.5 4.02335 0.001 0.001
10:10 am 10:10 Cloudy with Light Rain 43 6 43 6 100 100 NNW 3 6 30.13 1020 3 4.82802 0.001 0.001
10:54 am 10:54 Cloudy with Light Rain 43 6 43 6 100 100 Calm 30.12 1020 2 3.21868 0.001 0.001
10:56 am 10:56 Cloudy with Light Rain 42 5.6 42 5.6 100 100 Calm 30.11 1020 2 3.21868 0.001 0.001
11:23 am 11:23 Cloudy with Mist and Fog 45 7 45 7 100 100 Calm 30.09 1019 4 6.43736 0.001 0.001
11:56 am 11:56 Cloudy 44 6.7 44 6.7 100 100 S 3 6 30.09 1019 7 11.26538 0.001 0.001
12:12 pm 12:12 Cloudy with Mist and Fog 45 7 45 7 100 100 SSW 3 6 30.09 1019 6 9.65604 0 0
12:41 pm 12:41 Cloudy 46 8 45 7 93 93 WSW 6 9 30.08 1019 10 16.0934 0 0
12:56 pm 12:56 Cloudy 46 7.8 44 6.7 93 93 WSW 7 11 30.08 1019 10 16.0934 0 0
1:04 pm 13:04 Cloudy 46 8 45 7 93 93 WSW 5 7 30.07 1018 10 16.0934 0 0
1:56 pm 13:56 Cloudy 47 8.3 45 7.2 93 93 SW 8 13 30.07 1018 10 16.0934 0 0
2:56 pm 14:56 Cloudy 48 8.9 44 6.7 86 86 SSW 10 17 30.04 1017 10 16.0934 0 0
3:56 pm 15:56 Cloudy 49 9.4 43 6.1 80 80 W 12 19 30.03 1017 10 16.0934 0 0
4:56 pm 16:56 Cloudy 49 9.4 42 5.6 77 77 WSW 8 13 30.03 1017 10 16.0934 0 0
5:56 pm 17:56 Cloudy 49 9.4 42 5.6 77 77 WNW 7 11 30.02 1017 10 16.0934 0 0
6:56 pm 18:56 Cloudy 49 9.4 42 5.6 77 77 W 7 11 30.03 1017 10 16.0934 0 0
7:56 pm 19:56 Cloudy 48 8.9 43 6.1 83 83 SW 5 7 30.03 1017 10 16.0934 0 0
8:56 pm 20:56 Cloudy 47 8.3 42 5.6 83 83 WNW 6 9 30.03 1017 10 16.0934 0 0
9:56 pm 21:56 Cloudy 46 7.8 42 5.6 86 86 NNW 3 6 30.02 1017 10 16.0934 0 0
10:56 pm 22:56 Cloudy 46 7.8 41 5 83 83 Calm 30.03 1017 10 16.0934 0 0
11:56 pm 23:56 Cloudy 46 7.8 43 6.1 89 89 Calm 30.03 1017 10 16.0934 0 0

Powered by AerisWeather